Regional Weather Roundup
Issued by NWS

Home | Current Version | Previous Version | Graphics & Text | Print | Product List | Glossary On
Versions: 1 2 3 4 5 6 7 8 9 10 11 12 13 14 15 16 17 18 19 20 21 22 23 24 25 26 27 28 29 30 31 32 33 34 35 36 37 38 39 40 41 42 43 44 45 46 47 48 49 50
000
ASUS44 KMEG 020510
RWRTN
TENNESSEE HOURLY STATE WEATHER ROUNDUP
NATIONAL WEATHER SERVICE MEMPHIS TN
1200 AM CDT TUE SEP 02 2014

TNZ002-004-019-021-049-052-054-088>092-020600-
WEST TENNESSEE

CITY           SKY/WX    TMP DP  RH WIND       PRES   REMARKS
MEMPHIS INTL   CLEAR     81  71  71 S13       29.99R
NWS MEMPHIS      N/A     81 N/A N/A MISG        N/A
JACKSON        CLEAR     76  70  82 S3        29.99R
DYERSBURG      CLEAR     77  64  65 S5        29.98S
UNION CITY     CLEAR     75  72  88 S9        29.95S
PARIS          CLEAR     73  70  88 S5        29.98F
HUNTINGDON     CLEAR     73  69  87 CALM      29.99S
LEXINGTON      CLEAR     73  70  88 CALM      30.00S
SAVANNAH       CLEAR     73  73 100 CALM      30.02R
$$

TNZ008-025-027-028-033-062-065-066-020600-
NORTH MIDDLE TENNESSEE

CITY           SKY/WX    TMP DP  RH WIND       PRES   REMARKS
NASHVILLE      CLEAR     76  68  76 S3        30.03S
DICKSON        CLEAR     75  70  83 S6        30.03R
PORTLAND       PTCLDY    73  68  83 S6        30.02F
CLARKSVILLE    CLEAR     75  69  81 S3        29.99F
LEBANON        CLEAR     71  68  90 CALM      30.02S
SMYRNA         CLEAR     74  70  87 CALM      30.04S
MURFREESBORO   CLEAR     76  69  79 S5        30.03F
COOKEVILLE     CLEAR     73  70  88 CALM      30.06F
LIVINGSTON     CLEAR     74  66  75 SW5       30.08F
GALLATIN       CLEAR     73  71  93 CALM      30.04S
CROSSVILLE     CLEAR     72  69  90 CALM      30.13F
$$

TNZ061-075-076-078-094-096-097-020600-
SOUTH MIDDLE TENNESSEE

CITY           SKY/WX    TMP DP  RH WIND       PRES   REMARKS
LEWISBURG      CLEAR     70  67  90 CALM      30.04S
FAYETTEVILLE   CLEAR     73  68  83 S5        30.06S
TULLAHOMA      CLEAR     70  66  88 CALM      30.08S
WINCHESTER     CLEAR     72  70  94 CALM      30.07S
MCMINNVILLE    CLEAR     72  72 100 CALM      30.07S
COLUMBIA         N/A     73  73 100 CALM      30.02S
SHELBYVILLE    CLEAR     73  72  94 SE5       30.06S
$$

TNZ017-018-042-046-047-020600-
NORTHEAST TENNESSEE

CITY           SKY/WX    TMP DP  RH WIND       PRES   REMARKS
TRI CITIES     PTCLDY    70  67  90 CALM      30.11F
ELIZABETHTON   CLEAR     66  64  94 NE3       30.14S
$$

TNZ012-013-036-069-073-074-020600-
CENTRAL EAST TENNESSEE

CITY           SKY/WX    TMP DP  RH WIND       PRES   REMARKS
KNOXVILLE      NOT AVBL
OAK RIDGE      CLEAR     74  71  91 CALM      30.09F
GATLINBURG     CLEAR     70  66  88 CALM      30.08F
MORRISTOWN     CLEAR     72  70  94 SE3       30.10F
$$

TNZ083-085-099-020600-
SOUTHEAST TENNESSEE

CITY           SKY/WX    TMP DP  RH WIND       PRES   REMARKS
CHATTANOOGA    CLEAR     77  69  76 CALM      30.07F
$$

SKY/WX REPORTED AS FAIR MEANS FEW OR NO CLOUDS BELOW
12 THOUSAND FEET.



USA.gov is the U.S. government's official web portal to all federal, state and local government web resources and services.